Weather History for Boone, IA

Change the Weather History Date:

Saturday, October 20, 2012

  Actual Average Record
Temperature  
Mean Temperature 52 °F -  
Max Temperature 59 °F 60 °F 86 °F (2003)
Min Temperature 46 °F 33 °F 15 °F (1960)
Degree Days  
Heating Degree Days 12    
Growing Degree Days 2 (Base 50)    
Moisture  
Dew Point 44 °F    
Average Humidity 81    
Maximum Humidity 88    
Minimum Humidity 63    
Precipitation  
Precipitation 0.00 in - - ()
Sea Level Pressure  
Sea Level Pressure 29.82 in    
Wind  
Wind Speed 5 mph (SSE)    
Max Wind Speed 9 mph    
Max Gust Speed -    
Visibility 10 miles    
Events      
Averages and records for this station are not official NWS values.
T = Trace of Precipitation, MM = Missing Value Source: NWS Daily Summary

Daily Weather History Graph

Daily Weather History Graph

Search for Another Location

Airport:

Trip Planner

Search our weather history database for the weather conditions in past years. The results will help you decide how hot, cold, wet, or windy it might be!

Date:

Astronomy

Oct. 20, 2012 Rise Set
Actual Time 7:34 AM CDT 6:25 PM CDT
Civil Twilight 7:05 AM CDT 6:53 PM CDT
Nautical Twilight 6:33 AM CDT 7:26 PM CDT
Astronomical Twilight 6:00 AM CDT 7:58 PM CDT
Moon 1:13 PM CDT (10/20) 11:09 PM CDT (10/20)
Length of Visible Light 11h 47m
Length of Day
10h 50m
Waxing Crescent, 34% of the Moon is Illuminated
Oct 20
Waxing Crescent
Oct 21
First Quarter
Oct 29
Full
Nov 6
Last Quarter
Nov 13
New

Hourly Weather History & Observations

Time (CDT) Temp. Dew Point Humidity Pressure Visibility Wind Dir Wind Speed Gust Speed Precip Events Conditions
12:15 AM 47.3 °F 42.8 °F 84% 29.79 in 10.0 mi WNW 5.8 mph - N/A   Overcast
12:35 AM 47.3 °F 42.8 °F 84% 29.78 in 10.0 mi NW 5.8 mph - N/A   Overcast
12:55 AM 46.9 °F 43.0 °F 86% 29.78 in 10.0 mi NW 5.8 mph - N/A   Overcast
1:15 AM 46.8 °F 42.8 °F 86% 29.78 in 10.0 mi North 6.9 mph - N/A   Overcast
1:55 AM 46.8 °F 42.8 °F 86% 29.79 in 10.0 mi North 6.9 mph - N/A   Overcast
2:15 AM 46.8 °F 42.8 °F 86% 29.79 in 10.0 mi North 5.8 mph - N/A   Overcast
2:35 AM 46.8 °F 42.8 °F 86% 29.79 in 10.0 mi NNW 3.5 mph - N/A   Overcast
2:55 AM 46.8 °F 42.8 °F 86% 29.79 in 10.0 mi Calm Calm - N/A   Overcast
3:15 AM 46.6 °F 42.8 °F 87% 29.79 in 10.0 mi NW 3.5 mph - N/A   Overcast
3:35 AM 46.8 °F 43.0 °F 87% 29.79 in 10.0 mi WNW 3.5 mph - N/A   Overcast
3:55 AM 46.9 °F 43.0 °F 86% 29.79 in 10.0 mi Calm Calm - N/A   Overcast
4:15 AM 46.8 °F 43.0 °F 87% 29.79 in 10.0 mi WSW 3.5 mph - N/A   Overcast
4:55 AM 46.6 °F 43.2 °F 88% 29.80 in 10.0 mi West 3.5 mph - N/A   Overcast
5:15 AM 46.8 °F 43.0 °F 87% 29.80 in 10.0 mi Calm Calm - N/A   Overcast
5:35 AM 46.8 °F 43.0 °F 87% 29.80 in 10.0 mi Calm Calm - N/A   Overcast
5:55 AM 46.8 °F 43.0 °F 87% 29.80 in 10.0 mi Calm Calm - N/A   Overcast
6:15 AM 46.8 °F 42.8 °F 86% 29.81 in 10.0 mi Calm Calm - N/A   Overcast
6:35 AM 46.8 °F 43.0 °F 87% 29.82 in 10.0 mi West 3.5 mph - N/A   Overcast
6:55 AM 46.8 °F 43.0 °F 87% 29.83 in 10.0 mi West 5.8 mph - N/A   Overcast
7:15 AM 46.8 °F 43.2 °F 87% 29.82 in 10.0 mi Calm Calm - N/A   Overcast
7:35 AM 46.8 °F 43.2 °F 87% 29.83 in 10.0 mi WSW 4.6 mph - N/A   Overcast
7:55 AM 46.8 °F 43.2 °F 87% 29.84 in 10.0 mi Calm Calm - N/A   Overcast
8:15 AM 46.9 °F 43.2 °F 87% 29.84 in 10.0 mi Calm Calm - N/A   Overcast
8:35 AM 47.3 °F 43.2 °F 86% 29.84 in 10.0 mi Calm Calm - N/A   Overcast
8:55 AM 47.8 °F 43.5 °F 85% 29.84 in 10.0 mi SSW 3.5 mph - N/A   Overcast
9:15 AM 47.5 °F 42.8 °F 84% 29.84 in 10.0 mi Calm Calm - N/A   Overcast
9:35 AM 47.7 °F 43.3 °F 85% 29.85 in 10.0 mi West 3.5 mph - N/A   Overcast
9:55 AM 48.0 °F 43.7 °F 85% 29.86 in 10.0 mi SW 4.6 mph - N/A   Overcast
10:35 AM 48.2 °F 43.5 °F 84% 29.86 in 10.0 mi SSW 5.8 mph - N/A   Overcast
11:15 AM 49.6 °F 43.7 °F 80% 29.86 in 10.0 mi West 3.5 mph - N/A   Overcast
11:35 AM 50.5 °F 45.0 °F 81% 29.86 in 10.0 mi SSE 5.8 mph - N/A   Overcast
11:55 AM 50.9 °F 44.8 °F 80% 29.86 in 10.0 mi SE 3.5 mph - N/A   Overcast
12:15 PM 52.2 °F 45.7 °F 79% 29.86 in 10.0 mi SE 5.8 mph - N/A   Overcast
12:35 PM 53.2 °F 46.0 °F 77% 29.86 in 10.0 mi South 5.8 mph - N/A   Mostly Cloudy
12:55 PM 54.1 °F 46.6 °F 76% 29.84 in 10.0 mi SSE 5.8 mph - N/A   Mostly Cloudy
1:15 PM 54.9 °F 46.8 °F 74% 29.84 in 10.0 mi SE 5.8 mph - N/A   Overcast
1:35 PM 54.7 °F 46.2 °F 73% 29.84 in 10.0 mi South 5.8 mph - N/A   Overcast
1:55 PM 55.8 °F 46.2 °F 70% 29.83 in 10.0 mi South 5.8 mph - N/A   Overcast
2:15 PM 56.3 °F 46.6 °F 70% 29.82 in 10.0 mi South 5.8 mph - N/A   Overcast
2:35 PM 56.3 °F 46.4 °F 69% 29.82 in 10.0 mi SSE 9.2 mph - N/A   Overcast
2:55 PM 56.1 °F 46.2 °F 69% 29.81 in 10.0 mi SSE 6.9 mph - N/A   Mostly Cloudy
3:35 PM 58.1 °F 47.3 °F 67% 29.80 in 10.0 mi SE 8.1 mph - N/A   Scattered Clouds
3:55 PM 59.0 °F 47.1 °F 65% 29.79 in 10.0 mi SSE 9.2 mph - N/A   Clear
4:15 PM 59.2 °F 46.8 °F 63% 29.78 in 10.0 mi SSE 8.1 mph - N/A   Clear
4:35 PM 59.2 °F 46.6 °F 63% 29.78 in 10.0 mi SE 8.1 mph - N/A   Clear
4:55 PM 59.0 °F 46.4 °F 63% 29.78 in 10.0 mi SE 8.1 mph - N/A   Clear
5:35 PM 58.1 °F 46.9 °F 66% 29.79 in 10.0 mi ESE 8.1 mph - N/A   Clear
5:55 PM 56.5 °F 46.9 °F 70% 29.79 in 10.0 mi ESE 8.1 mph - N/A   Clear
6:15 PM 54.3 °F 46.6 °F 75% 29.80 in 10.0 mi ESE 6.9 mph - N/A   Clear
6:35 PM 51.8 °F 46.0 °F 81% 29.80 in 10.0 mi East 8.1 mph - N/A   Clear
6:55 PM 51.4 °F 45.9 °F 81% 29.79 in 10.0 mi ESE 6.9 mph - N/A   Clear
7:15 PM 50.0 °F 44.6 °F 82% 29.81 in 10.0 mi ESE 8.1 mph - N/A   Clear
7:35 PM 50.0 °F 45.0 °F 83% 29.81 in 10.0 mi ESE 6.9 mph - N/A   Clear
7:55 PM 49.5 °F 44.8 °F 84% 29.81 in 10.0 mi ESE 8.1 mph - N/A   Clear
8:15 PM 48.9 °F 44.1 °F 83% 29.81 in 10.0 mi ESE 6.9 mph - N/A   Clear
8:35 PM 48.4 °F 43.9 °F 84% 29.81 in 10.0 mi ESE 6.9 mph - N/A   Clear
8:55 PM 48.6 °F 44.1 °F 84% 29.82 in 10.0 mi ESE 6.9 mph - N/A   Clear
9:35 PM 49.1 °F 44.1 °F 83% 29.83 in 10.0 mi SE 8.1 mph - N/A   Clear
9:55 PM 48.7 °F 43.9 °F 83% 29.83 in 10.0 mi SE 8.1 mph - N/A   Clear
10:15 PM 48.2 °F 43.7 °F 84% 29.84 in 10.0 mi SE 9.2 mph - N/A   Clear
10:35 PM 47.5 °F 43.3 °F 86% 29.83 in 10.0 mi ESE 9.2 mph - N/A   Clear
10:55 PM 47.5 °F 43.7 °F 87% 29.84 in 10.0 mi ESE 9.2 mph - N/A   Clear
11:15 PM 47.3 °F 43.5 °F 87% 29.84 in 10.0 mi ESE 8.1 mph - N/A   Clear
11:35 PM 47.8 °F 43.9 °F 86% 29.84 in 10.0 mi SE 9.2 mph - N/A   Clear
11:55 PM 47.3 °F 43.2 °F 86% 29.84 in 10.0 mi SE 9.2 mph - N/A   Clear